CAPE
0 0 0 0 0 0 0 0 0 0 0 0 0 0 0 0 2 2 1 2 1 1
0 0 0 0 0 0 0 0 0 0 0 0 0 0 0 0 0 0 0 2 2 2
0 0 0 0 0 0 0 0 0 0 0 0 0 0 0 0 0 0 0 0 1 3
0 0 0 0 0 0 0 0 0 0 0 0 0 0 0 1 1 1 0 0 1 1
0 0 0 0 0 0 0 0 0 0 0 0 0 0 0 0 0 1 0 0 0 0
0 0 0 0 0 0 0 0 0 0 0 0 0 0 0 0 0 0 1 0 0 0
0 0 0 0 0 0 0 0 0 0 0 0 0 0 0 0 0 0 0 0 0 0
0 0 0 0 0 0 0 0 0 0 0 0 0 0 0 0 0 0 0 0 0 0
0 0 0 0 0 0 0 0 0 0 0 0 0 0 0 0 0 0 0 0 4 0
0 0 0 0 0 0 0 0 0 0 0 0 0 0 0 0 0 0 4 10 4 0
0 0 0 0 0 0 0 0 0 0 0 0 2 0 0 0 0 0 1 1 1 3
0 0 0 0 0 0 0 0 0 0 0 0 2 1 0 0 0 0 0 2 2 2
0 0 0 0 0 0 0 0 0 0 0 0 0 3 0 0 0 0 0 0 0 1
0 0 0 0 0 0 0 0 0 0 0 0 0 2 0 0 0 0 0 0 0 0
CIN
0 0 0 0 0 0 0 0 0 0 0 0 0 0 0 0 0 0 0 0 0 -1
0 0 0 0 0 0 0 0 0 0 0 0 0 0 0 0 0 0 0 0 0 0
0 0 0 0 0 0 0 0 0 0 0 0 0 0 0 0 0 0 0 0 0 0
0 0 0 0 0 0 0 0 0 0 0 0 0 0 0 0 0 0 0 0 0 0
0 0 0 0 0 0 0 0 0 0 0 0 0 0 0 0 0 -1 -1 -1 -1 -2
0 0 0 0 0 0 0 0 0 0 0 0 0 0 0 0 0 0 -7 0 0 0
0 0 0 0 0 0 0 0 0 0 0 0 0 0 0 0 0 0 0 0 0 0
0 0 0 0 0 0 0 0 0 0 0 0 0 0 0 0 0 0 0 -26 0 0
0 0 0 0 0 0 0 0 0 0 0 0 0 0 0 0 0 0 -9 -26 -23 -9
0 0 0 0 0 0 0 0 0 0 0 0 0 0 0 0 0 0 -16 -12 -15 -17
0 0 0 0 0 0 0 0 0 0 0 0 -18 0 0 0 0 0 -7 -4 -3 -8
0 0 0 0 0 0 0 0 0 0 0 0 -17 -8 0 0 0 0 0 -8 -8 -2
0 0 0 0 0 0 0 0 0 0 0 0 0 -13 -1 0 0 0 0 0 0 -7
0 0 0 0 0 0 0 0 0 0 0 0 0 -12 0 0 0 0 0 0 -11 0
Wind_Speed
14 15 16 16 17 18 19 21 22 23 23 25 26 26 27 27 27 28 28 28 28 29
15 16 16 16 17 18 19 20 21 21 23 24 26 27 28 28 28 28 27 28 27 28
15 16 16 16 17 17 18 20 21 22 24 25 26 27 28 29 29 30 29 28 30 30
15 16 16 16 17 17 18 20 21 23 25 26 28 28 29 30 31 32 33 33 33 33
14 15 15 15 15 17 18 19 21 23 26 28 29 29 31 32 32 33 34 34 35 36
13 14 14 14 15 16 18 20 22 24 26 27 29 31 32 33 34 34 33 33 34 35
13 13 13 13 15 16 18 20 22 23 25 27 28 30 32 33 34 34 34 34 34 34
11 12 12 13 15 17 19 21 22 23 24 24 25 27 30 31 31 31 32 33 33 33
9 10 11 13 15 18 20 21 22 23 22 23 24 25 27 26 27 29 30 31 32 32
10 10 12 12 13 17 19 20 22 21 20 21 20 22 23 23 25 27 29 29 29 30
11 12 11 12 12 16 18 19 19 19 18 20 20 18 17 20 23 26 26 25 29 29
9 14 14 11 13 15 16 18 18 17 19 22 20 15 14 17 20 22 23 23 25 25
9 11 14 11 13 15 16 16 16 15 18 21 19 15 11 13 19 21 22 19 20 25
13 13 14 13 14 15 16 16 15 13 16 19 16 16 10 10 15 17 19 15 17 20
Wind_Direction
352 348 346 343 340 338 336 336 335 335 334 332 331 329 328 326 323 320 315 311 308 303
352 348 345 345 345 342 341 340 340 340 338 335 333 331 329 327 325 324 320 317 313 307
349 348 347 347 345 344 342 340 339 337 337 335 334 332 331 328 327 324 322 320 314 310
342 341 341 342 343 343 342 340 338 337 335 334 333 334 332 329 326 323 320 318 314 311
339 339 338 339 343 342 340 339 337 336 335 333 333 335 332 330 328 325 322 319 315 311
336 337 338 341 341 343 340 337 337 337 335 336 336 334 332 330 329 327 325 323 319 314
336 337 340 343 341 340 340 338 338 339 339 339 341 340 339 336 332 328 326 323 320 316
343 340 344 340 338 337 336 337 339 338 341 347 349 346 344 341 338 335 332 329 324 320
348 344 336 334 334 332 333 334 339 343 350 350 350 350 350 349 346 342 338 336 333 329
324 331 327 327 332 332 331 334 340 347 351 352 355 354 357 356 352 348 344 340 340 338
311 316 322 320 325 328 328 334 346 351 357 355 357 359 1 354 355 351 353 353 341 342
298 305 310 313 316 320 325 333 344 353 360 357 1 7 10 359 357 359 360 359 349 355
283 301 302 305 309 313 320 331 342 355 359 2 4 12 21 13 359 358 358 9 1 348
281 290 295 297 301 305 313 326 338 355 359 4 13 17 30 33 16 14 11 19 15 359